RH
76 76 76 76 77 78 78 85 86 90 90 91 91 89 90 92 89 91 98 96 97 100 98 95 96 95 95 93 94 100 95 96 100 100 100 100 100 94 86 53 56 85 98 98 98 100 97 36 33 49 42 36 30 30
78 78 78 78 78 80 77 78 86 89 90 90 89 89 87 88 91 85 94 90 93 96 99 94 92 94 93 94 94 97 98 98 99 100 98 98 100 96 81 87 46 76 80 78 76 78 50 40 40 33 31 35 33 34
86 87 85 85 82 80 79 77 80 88 89 89 89 88 88 86 89 86 94 91 84 94 92 90 80 71 90 91 90 98 98 94 98 97 100 100 100 99 100 84 66 56 48 73 67 52 48 40 37 38 34 40 36 34
90 90 90 86 85 83 83 79 80 85 91 91 89 88 88 86 85 87 96 92 65 69 96 97 61 66 58 74 79 81 87 96 94 97 100 100 100 98 100 99 99 83 89 74 75 73 72 54 56 69 66 50 44 37
90 92 92 91 88 86 84 84 83 82 89 91 91 90 89 88 85 93 95 84 67 52 96 91 70 61 60 62 69 74 76 86 97 100 100 100 99 98 97 98 87 49 66 91 97 89 90 87 75 74 68 60 53 60
90 92 93 93 92 90 88 88 85 82 86 89 90 90 89 88 89 96 100 95 89 76 81 90 79 76 68 69 67 77 82 87 93 100 100 99 82 83 100 89 45 36 32 34 63 82 84 68 66 62 80 71 64 69
89 93 90 93 93 90 88 86 85 82 90 88 88 88 89 90 93 98 97 82 88 89 89 91 82 79 72 71 76 81 75 92 95 99 100 80 76 82 100 90 43 35 32 33 41 75 70 49 46 42 43 42 42 40
90 91 94 93 91 89 86 84 83 86 88 88 90 92 91 90 90 95 92 84 78 90 76 95 90 76 74 85 89 77 86 96 100 100 100 93 70 99 100 48 38 34 33 34 33 43 46 38 36 33 33 34 45 48
92 88 89 89 88 86 85 85 88 88 88 91 90 86 92 96 100 98 86 89 94 89 99 82 63 78 65 78 80 87 88 100 83 98 77 67 69 89 58 40 34 33 35 36 30 33 32 37 38 36 36 39 47 52
92 93 92 87 88 91 91 90 90 88 86 84 90 98 100 100 90 86 94 99 100 100 92 73 39 67 54 71 77 80 91 86 83 58 64 87 60 41 34 32 31 32 30 36 46 50 44 42 42 45 41 40 46 50
88 91 94 93 93 92 91 90 86 82 82 88 100 100 99 88 94 100 100 100 99 100 86 61 42 64 48 76 78 53 82 64 73 54 70 61 49 38 39 46 46 43 42 39 36 37 37 40 42 47 72 75 90 98
88 86 82 88 90 91 90 88 83 76 75 75 80 89 94 97 97 96 92 74 67 54 65 66 58 57 64 60 70 80 75 63 68 55 84 63 44 45 41 46 48 51 50 48 42 42 59 70 70 86 96 99 98 98
87 87 83 86 88 85 85 84 79 80 68 57 68 97 96 83 99 88 92 61 65 55 65 74 92 84 78 71 76 70 90 81 53 83 65 39 38 43 47 47 58 61 72 78 89 95 98 100 98 98 98 100 100 99
83 83 84 84 85 84 82 82 78 72 50 66 75 97 90 99 68 52 47 50 58 58 64 69 87 80 78 77 72 96 58 60 77 85 54 53 73 64 61 71 72 87 92 97 99 98 99 100 100 100 100 100 100 100
75 77 74 78 83 83 80 76 67 43 43 58 57 94 76 71 70 73 70 68 70 73 88 95 82 76 76 94 69 67 83 78 58 50 61 78 70 62 67 76 82 92 99 93 93 96 100 100 88 96 97 86 85 100
72 71 62 78 80 79 78 59 43 39 47 54 53 75 71 83 96 94 90 92 74 78 72 78 78 87 81 69 72 75 58 56 53 56 79 61 62 62 77 94 100 95 75 72 71 72 78 87 80 71 72 77 89 90
73 49 72 75 79 82 67 46 43 41 50 47 81 67 72 75 96 92 82 78 67 87 91 63 82 68 66 71 68 52 65 59 80 80 67 62 65 74 80 92 100 100 77 68 68 68 67 64 61 60 64 61 59 64
45 49 72 73 70 56 42 42 48 49 43 55 67 78 68 76 86 80 76 76 79 74 61 71 55 68 78 56 56 60 63 73 66 68 70 67 71 78 81 88 94 70 68 76 78 81 69 72 60 61 56 53 53 52
60 64 75 74 69 58 48 48 47 51 49 58 60 61 63 72 67 70 77 77 72 63 71 67 61 61 58 49 56 59 66 66 75 76 81 75 79 96 97 93 86 75 83 74 60 64 61 59 58 55 52 50 54 57
73 75 72 74 71 49 45 45 45 45 48 54 56 56 59 61 67 84 81 83 74 77 83 74 61 59 62 60 61 64 66 66 75 83 88 89 88 85 79 71 71 68 68 65 63 67 56 55 50 52 52 52 59 61
62 60 67 61 50 51 43 44 42 38 43 51 49 51 58 66 69 76 88 93 96 82 69 63 72 72 78 81 70 66 69 68 72 69 76 92 88 70 68 68 65 66 70 71 72 72 68 68 55 53 75 81 76 70
52 69 48 53 53 46 43 33 37 38 46 46 59 55 58 86 84 76 71 88 83 67 64 67 64 72 80 87 92 69 73 65 66 73 78 82 86 85 83 80 79 84 84 87 75 78 68 55 57 61 75 80 67 74
68 62 54 52 75 72 66 44 47 39 52 58 58 58 56 64 60 57 80 59 60 56 55 55 55 58 64 93 79 74 86 69 68 67 73 76 76 83 86 85 85 89 85 72 69 74 72 62 68 77 74 73 76 83
73 63 94 77 64 83 65 72 43 40 42 49 55 62 48 60 59 67 63 54 54 49 54 66 59 66 69 72 73 78 76 64 63 66 67 67 73 76 77 76 78 76 74 66 66 74 72 80 73 69 76 77 78 77
74 82 90 82 74 86 84 80 61 49 75 66 55 62 70 57 74 64 61 58 57 70 69 60 59 56 65 72 71 73 73 62 63 68 68 61 74 74 74 72 76 72 69 82 84 84 81 78 76 76 73 76 73 74
82 77 88 72 78 74 62 74 73 72 63 70 65 54 69 78 82 79 50 61 78 78 99 99 87 61 56 54 64 75 73 60 63 74 67 61 68 83 84 85 86 80 66 86 82 82 77 73 73 71 81 80 77 74
77 78 56 46 48 49 65 64 51 62 73 74 67 82 84 83 77 58 57 60 62 70 65 69 64 56 54 55 60 66 64 61 77 72 66 65 68 71 80 84 81 76 70 76 82 79 77 74 73 72 76 78 76 77
65 60 79 73 66 49 78 72 79 79 70 47 61 81 78 72 59 64 64 78 77 67 75 75 67 56 63 76 81 85 86 83 88 79 72 70 71 81 86 85 79 72 78 81 82 76 74 71 72 73 75 79 81 77
74 55 56 81 74 69 73 76 71 58 51 59 82 73 73 55 83 79 82 82 80 77 85 90 95 97 91 88 85 82 90 92 92 89 86 88 88 87 80 82 82 81 82 81 75 70 69 71 72 78 78 79 79 80
69 53 71 81 80 74 82 70 86 94 57 64 64 61 58 82 87 82 88 91 86 95 99 99 96 97 94 93 94 92 97 100 100 97 88 85 85 85 83 82 82 81 78 79 79 81 83 86 84 84 82 82 82 81
61 69 78 72 74 88 99 96 100 97 97 92 97 97 82 93 92 86 85 91 93 96 95 96 95 97 91 92 98 96 97 97 92 97 98 94 87 84 82 80 79 79 78 78 80 79 81 79 79 78 76 77 78 78
85 83 78 74 80 87 90 94 92 93 95 99 98 98 100 100 97 94 92 94 92 93 87 88 93 95 99 100 100 100 84 86 84 85 85 85 84 83 79 75 78 76 76 76 77 76 72 74 77 77 78 77 76 77
82 81 79 76 87 86 85 87 84 86 94 88 89 92 95 95 86 99 91 98 98 98 93 94 100 99 98 99 98 96 83 85 81 78 77 78 79 79 79 78 77 76 74 76 76 74 72 71 75 75 76 78 78 78
Wind_Speed
19 17 15 14 13 11 8 9 4 11 16 17 16 16 18 20 17 5 5 2 4 3 3 4 5 3 2 1 8 1 4 3 4 7 5 4 7 9 9 16 21 15 11 12 12 12 30 8 16 29 14 19 21 15
21 17 16 13 12 10 7 5 4 6 14 15 16 16 17 18 22 9 4 7 5 4 2 1 3 2 5 4 2 4 3 4 4 3 2 3 5 3 12 16 19 20 11 11 16 14 19 12 14 16 19 24 24 23
24 21 17 14 12 9 6 3 2 3 9 14 14 14 15 16 19 6 5 8 5 4 1 1 3 3 4 1 2 3 3 3 4 3 2 1 4 5 6 14 17 12 16 16 21 24 24 23 21 20 24 18 14 12
23 22 19 15 12 10 7 5 4 2 9 12 14 16 16 17 18 9 5 5 4 4 3 2 1 5 6 9 8 4 5 4 5 1 2 2 1 2 3 4 3 5 11 9 14 12 13 18 14 14 12 13 12 11
20 19 17 14 13 12 9 9 8 6 6 12 14 16 16 16 17 9 5 5 4 1 3 3 2 3 3 8 11 10 7 6 3 3 3 3 3 4 3 3 10 6 10 6 2 6 7 5 10 13 12 12 11 8
23 19 15 13 14 13 11 9 8 6 4 11 14 14 16 16 19 6 3 4 1 0 2 3 3 2 3 2 8 7 5 2 2 0 1 3 3 6 4 5 14 17 17 15 10 3 8 16 13 13 10 9 9 8
22 21 11 13 15 13 11 10 10 7 8 12 13 13 15 20 7 3 3 4 11 1 3 4 6 3 1 3 2 3 6 3 2 2 4 5 5 5 3 12 22 20 21 15 10 9 14 18 12 11 12 15 15 12
22 21 20 18 16 14 12 11 9 7 10 11 12 17 20 21 11 4 4 17 9 2 1 2 4 6 6 4 4 1 3 2 2 1 2 3 5 2 7 17 19 20 20 20 21 14 18 19 20 21 17 14 12 12
19 16 18 17 15 14 11 9 8 11 16 24 28 21 7 5 3 2 12 10 2 2 4 3 5 4 5 3 3 3 2 2 3 4 5 5 6 8 14 16 18 19 18 17 17 14 17 18 19 18 17 15 10 11
22 19 13 12 12 10 12 15 25 28 25 18 8 5 3 2 22 10 5 3 2 2 3 4 6 6 6 4 4 5 3 3 4 7 3 6 10 19 19 17 17 18 14 12 15 15 16 18 13 14 15 11 6 4
22 22 22 20 21 20 23 26 25 17 9 4 3 3 5 6 3 1 3 3 4 4 5 5 5 6 3 5 4 4 4 3 4 5 5 4 7 4 6 7 7 8 9 10 13 14 14 15 12 10 7 7 8 10
19 16 15 18 19 18 15 10 4 1 2 7 10 6 4 3 3 4 4 4 6 5 6 8 6 4 4 2 2 3 4 3 6 3 2 5 4 6 2 3 6 7 7 7 7 6 9 10 7 6 6 7 7 8
14 16 13 20 18 17 14 10 11 17 19 9 4 3 4 2 3 5 6 4 5 6 6 7 6 4 3 3 3 4 5 6 1 3 5 4 3 6 6 6 7 9 9 8 10 10 9 9 9 9 9 8 9 8
12 10 12 14 12 9 5 4 7 8 5 2 4 3 3 4 5 2 3 4 5 6 9 7 6 4 3 6 3 4 3 3 5 5 7 3 7 5 6 5 4 6 7 8 7 7 9 9 10 9 9 7 7 8
12 9 4 14 13 12 10 7 5 4 2 1 1 2 2 3 4 3 3 5 6 6 7 5 3 4 4 4 4 3 4 6 6 5 2 4 4 3 2 3 4 6 4 7 8 9 8 8 10 10 8 8 9 7
11 7 5 12 12 13 11 8 3 1 1 2 3 3 3 4 2 2 2 5 4 7 6 3 4 4 5 3 5 8 5 6 3 0 4 3 2 2 4 4 5 5 6 7 8 9 9 7 8 10 9 9 8 8
13 1 10 12 13 14 8 5 2 2 1 2 2 2 2 2 4 5 5 6 7 5 4 4 6 6 3 4 6 5 5 4 4 3 0 1 3 5 5 7 6 4 6 7 8 8 8 8 8 7 8 7 7 7
2 5 11 12 10 5 1 2 2 2 2 2 2 3 2 2 2 3 3 6 6 4 4 3 1 5 5 7 8 5 4 3 1 1 2 3 6 6 6 9 6 6 8 8 8 7 7 5 6 5 5 4 4 3
10 11 15 12 7 4 2 3 3 3 2 2 2 3 1 1 1 1 2 5 5 4 2 3 6 6 9 5 4 2 3 4 4 3 3 5 7 8 7 7 6 8 8 8 7 5 5 6 5 4 3 3 3 4
16 14 8 7 6 3 4 2 2 4 3 2 3 4 3 3 3 3 5 4 6 3 5 5 6 4 2 1 1 2 3 4 6 6 5 5 6 8 8 8 6 9 7 7 6 4 4 4 4 4 5 5 4 4
10 3 4 4 5 4 3 3 4 2 2 3 3 2 3 2 5 5 4 4 6 5 6 6 5 3 3 2 1 2 5 7 7 6 7 7 6 6 6 5 7 5 5 4 4 3 1 3 3 4 3 4 3 4
1 4 3 2 4 5 5 5 3 4 3 2 3 4 4 4 5 6 7 6 4 8 7 5 6 6 5 5 5 5 7 9 6 4 8 9 7 6 5 5 5 5 4 4 4 3 3 3 3 3 3 3 2 4
9 5 3 4 3 4 3 1 7 6 5 4 2 4 4 4 3 7 5 7 7 8 7 7 6 6 5 6 8 7 8 8 7 7 7 7 6 5 5 5 4 5 5 4 5 4 4 4 3 3 3 2 3 3
2 3 3 4 7 3 2 4 4 4 4 6 5 4 3 2 4 4 8 9 7 7 9 9 8 6 5 8 7 8 9 8 7 7 8 8 7 6 5 4 4 3 4 5 4 5 5 4 4 3 3 3 3 3
5 6 5 6 5 5 6 4 5 5 5 7 7 3 2 3 3 4 6 4 8 8 8 10 10 9 8 7 7 8 10 8 8 9 7 6 6 6 5 5 5 5 5 6 6 5 5 4 3 3 3 3 4 4
7 7 8 8 6 6 7 6 8 8 6 6 5 2 2 3 4 6 3 1 2 5 5 6 8 8 8 8 9 8 9 7 6 6 7 6 7 7 8 8 7 5 5 4 6 6 6 4 5 5 5 6 4 5
7 7 5 4 4 4 3 1 5 4 6 7 4 6 5 5 7 3 4 2 2 1 4 7 7 7 7 6 5 6 8 6 4 7 7 5 4 4 5 6 7 7 7 6 5 6 6 6 6 5 5 5 4 4
6 4 7 8 5 6 4 6 7 8 5 4 6 7 5 5 1 3 4 3 1 2 5 5 2 1 5 8 8 8 9 10 11 11 10 8 7 6 7 7 8 10 7 6 6 5 5 5 6 6 6 6 4 4
4 4 6 7 6 4 6 7 5 4 2 4 4 5 3 2 2 1 1 1 2 4 5 6 6 6 8 7 7 7 9 9 13 16 13 9 8 6 6 8 8 7 7 7 8 6 6 6 6 7 7 6 5 5
7 7 6 8 5 7 4 3 1 2 2 1 2 1 2 2 2 2 2 3 4 4 4 6 7 6 8 9 9 9 5 3 4 5 8 9 8 10 8 8 8 8 7 8 8 10 11 10 10 8 7 6 5 5
4 6 4 6 4 2 3 2 2 2 1 2 0 2 1 2 2 2 3 3 3 5 6 7 7 6 8 9 9 10 8 3 5 7 8 9 10 10 9 9 8 7 8 9 9 8 9 8 7 7 6 6 6 5
6 8 6 7 5 4 3 4 4 4 4 4 4 2 2 2 3 4 4 5 6 6 8 8 8 8 6 5 5 4 10 9 8 8 13 10 10 11 11 9 8 8 9 9 8 8 8 8 7 7 7 8 6 6
8 8 8 7 4 5 5 5 6 4 4 4 4 3 3 1 1 3 2 1 1 3 6 5 5 7 8 8 8 9 10 9 12 12 14 15 15 13 10 9 9 9 11 9 9 8 9 10 9 8 8 8 7 8
Wind_Direction
324 323 321 319 321 322 338 343 316 204 188 178 168 161 157 153 146 93 93 106 100 79 62 18 15 336 52 276 206 192 119 206 160 194 180 177 206 199 241 237 225 190 180 210 220 228 256 210 242 228 258 257 274 287
316 312 309 304 305 305 314 340 339 199 188 179 168 163 163 160 155 150 114 123 111 79 71 15 52 353 23 61 90 11 41 48 46 200 155 171 203 237 231 244 221 240 210 212 199 223 246 259 259 266 275 258 261 270
309 304 298 290 285 284 271 285 309 174 161 178 164 160 165 161 166 121 127 136 132 118 116 345 237 138 146 130 359 90 33 62 68 31 112 87 291 340 232 253 259 244 245 229 241 240 253 262 262 276 269 285 301 286
304 296 287 272 262 253 245 220 196 180 167 162 162 167 166 169 172 132 126 153 138 113 131 134 136 227 175 196 200 167 130 143 125 147 109 139 316 63 314 317 300 325 329 287 262 290 329 297 330 341 327 297 306 301
319 305 285 260 232 229 225 205 181 188 178 165 165 165 162 166 160 107 111 178 177 169 140 120 148 143 224 206 208 211 211 188 161 153 159 204 173 206 205 233 249 232 264 257 281 27 358 332 335 342 345 324 314 315
335 322 288 233 202 195 192 186 179 177 189 167 165 161 159 157 125 96 78 228 8 339 135 167 96 91 148 212 206 195 203 177 120 222 220 205 247 207 224 253 262 265 264 265 262 189 231 263 274 278 255 273 279 303
354 358 15 148 152 161 155 163 152 170 167 154 160 166 161 133 122 121 151 157 170 61 218 164 154 95 46 146 146 181 205 160 165 188 230 251 218 203 236 251 264 274 279 279 275 178 234 244 262 272 273 275 278 276
10 32 58 92 117 128 137 141 145 156 146 146 150 150 145 110 96 63 15 139 138 134 110 211 107 157 199 143 140 213 149 112 166 234 217 247 256 216 249 257 271 272 271 278 274 226 255 273 277 273 270 273 268 268
18 43 63 78 93 105 117 126 137 128 110 106 103 98 74 58 87 113 118 76 16 95 182 207 182 140 162 127 112 129 88 185 155 227 224 226 236 224 243 264 271 274 275 267 276 270 266 267 269 274 278 283 259 277
38 45 54 79 81 90 110 114 112 112 110 92 52 56 91 149 117 89 29 78 58 339 251 222 223 125 168 168 168 149 157 229 232 214 158 231 255 258 260 262 272 285 285 290 290 278 278 279 267 271 275 276 280 210
37 43 51 75 84 85 106 114 117 111 52 55 67 53 73 94 86 137 138 160 135 186 200 228 184 134 168 163 160 214 181 213 247 170 227 234 248 276 40 354 331 331 326 299 283 276 277 279 288 297 57 60 102 109
38 42 51 61 62 63 65 60 29 188 81 118 105 127 168 145 167 178 139 151 209 176 155 177 167 108 127 214 203 199 214 203 254 109 244 260 262 53 356 333 10 353 343 326 314 320 25 31 24 83 94 96 80 93
30 34 73 86 60 68 58 32 71 124 132 131 91 114 193 170 176 196 171 189 180 133 167 151 130 99 142 226 221 194 207 230 86 216 234 248 84 41 351 360 26 25 34 39 49 56 61 59 58 76 81 74 84 82
4 26 47 31 20 35 70 154 211 234 247 183 156 130 229 158 222 210 186 142 75 121 144 137 117 148 158 195 180 215 226 182 235 237 240 232 57 3 14 39 38 56 62 73 65 69 74 76 77 67 70 75 83 80
354 341 345 21 355 352 356 355 336 233 248 195 219 175 167 81 32 54 53 89 58 114 110 114 124 177 172 162 215 199 194 242 226 258 48 71 45 16 32 81 91 91 81 90 91 83 77 82 83 74 67 78 80 76
339 293 16 354 347 340 330 302 199 201 185 197 156 144 138 124 128 150 133 119 148 142 157 201 159 186 185 195 183 212 222 229 222 216 82 135 118 76 108 106 101 89 101 104 107 104 93 87 94 88 79 78 74 75
317 103 8 352 338 314 288 309 314 23 320 219 114 96 143 101 128 163 177 158 172 176 206 183 187 195 157 199 212 213 230 309 63 106 159 149 140 134 137 121 109 124 131 114 109 104 101 105 120 110 94 92 90 88
267 70 20 346 331 294 224 265 266 257 229 175 195 172 149 118 150 156 187 144 168 210 201 223 276 204 210 214 221 208 215 132 88 119 156 129 117 131 137 131 143 137 112 100 109 108 101 120 107 93 95 88 113 68
320 317 320 315 320 299 234 201 249 233 201 158 149 162 153 136 192 128 223 180 208 199 207 210 227 232 228 239 270 234 143 171 167 164 130 121 119 112 116 119 115 116 124 148 140 107 87 63 69 66 51 17 16 46
297 286 285 304 274 230 224 183 258 256 207 163 186 176 186 205 157 190 215 180 197 194 210 220 233 242 269 346 302 262 157 136 140 158 144 135 139 151 153 159 142 141 135 123 107 120 127 106 72 55 27 28 8 24
291 86 267 238 201 251 288 201 227 239 165 210 159 195 185 216 216 200 197 171 203 217 218 224 221 185 88 85 159 140 138 162 174 173 161 155 168 166 158 144 147 155 153 159 150 107 72 88 79 66 45 56 55 31
360 319 256 162 244 206 247 217 269 139 227 173 160 217 213 222 222 209 166 191 239 225 222 224 212 175 171 181 177 166 166 167 169 122 130 138 168 162 168 170 170 169 156 155 154 143 138 107 87 76 84 109 66 50
287 203 227 213 214 234 248 230 219 201 204 190 177 224 223 218 204 149 213 217 219 216 218 216 198 191 157 142 168 158 181 193 168 165 158 171 170 166 154 171 163 159 154 145 130 145 119 108 108 116 118 128 110 113
286 238 204 216 216 189 189 222 234 216 219 194 204 236 228 206 150 231 246 239 214 206 207 203 180 161 156 163 176 170 180 195 173 153 170 164 161 169 157 164 138 139 139 142 142 125 147 114 150 121 106 95 66 67
182 209 199 204 210 177 197 204 207 204 202 210 226 232 151 184 220 251 246 237 222 209 202 195 200 195 194 188 181 167 180 194 179 171 172 186 124 139 142 133 132 128 136 147 153 152 146 146 139 129 117 90 91 91
216 195 202 197 180 197 188 193 194 206 189 204 200 123 111 202 233 239 232 177 181 187 185 186 197 196 207 194 176 166 185 186 168 155 170 161 159 170 169 165 157 166 169 140 152 155 159 154 131 131 112 104 85 103
225 206 198 232 194 203 187 193 184 170 192 201 173 167 189 223 229 228 109 121 128 81 177 189 212 205 192 165 138 126 154 158 141 124 124 121 109 134 157 175 184 139 151 149 152 154 151 149 148 145 120 119 104 85
219 215 187 187 202 195 192 184 188 197 200 196 162 190 211 223 325 63 46 62 63 98 70 61 46 122 117 108 111 111 106 103 97 101 101 90 84 82 81 78 96 119 121 131 131 133 144 149 146 142 131 116 106 96
210 198 180 196 196 197 215 204 212 210 188 182 191 197 212 79 58 77 106 133 182 164 135 119 96 90 89 109 138 140 146 150 149 152 150 139 139 119 117 122 123 119 114 102 86 105 130 131 131 115 117 122 117 114
189 179 194 174 208 211 208 209 138 70 209 339 33 120 163 129 118 128 149 173 177 172 139 134 142 147 149 149 139 134 125 120 157 156 156 162 145 137 140 134 132 129 128 123 120 110 102 104 104 111 122 129 126 128
161 197 215 199 218 200 95 129 154 169 211 207 47 267 63 96 153 172 184 170 127 128 143 150 158 157 164 159 156 149 143 134 92 90 96 109 129 140 139 136 133 128 125 133 142 143 141 144 134 137 140 124 121 136
199 205 198 209 187 154 174 200 184 205 184 202 189 187 170 209 236 155 166 166 171 176 178 169 165 164 150 128 122 86 121 129 130 126 128 132 135 133 135 132 130 137 137 138 135 141 142 138 141 133 134 140 139 129
218 213 225 230 167 187 184 190 193 185 199 212 194 202 202 274 263 91 130 258 246 181 167 162 129 128 134 127 122 117 124 120 127 128 131 128 132 135 133 135 133 135 138 136 141 140 142 139 136 138 128 129 140 143